contact:dominique.lefevre@mio.osupytheas.fr, maurice.libes@osupytheas.fr, didier.mallarino@osupytheas.fr
Project:EMSO http://www.emso-fr.org/EMSO-France
Depth: 2436.0 m
Title:EMSO Ligure Ouest : Data MII capteur OXYGEN
DateTime,Latitude,Longitude,Optode-Type,Optode_Serial,Oxygen,Saturation_Oxygen,Temperature
DateTime,Latitude,Longitude,Optode-Type,Optode_Serial,µmol.l-1,%,degC
2019-07-16T00:01:58,42.805,6.029,4330,1995,192.533,58.890,13.296
2019-07-16T00:04:58,42.805,6.029,4330,1995,192.544,58.890,13.294
2019-07-16T00:07:58,42.805,6.029,4330,1995,192.565,58.896,13.293
2019-07-16T00:10:58,42.805,6.029,4330,1995,192.551,58.890,13.292
2019-07-16T00:13:58,42.805,6.029,4330,1995,192.526,58.883,13.292
2019-07-16T00:16:58,42.805,6.029,4330,1995,192.547,58.889,13.292
2019-07-16T00:19:58,42.805,6.029,4330,1995,192.550,58.891,13.293
2019-07-16T00:22:58,42.805,6.029,4330,1995,192.582,58.901,13.293
2019-07-16T00:25:58,42.805,6.029,4330,1995,192.642,58.922,13.295
2019-07-16T00:28:58,42.805,6.029,4330,1995,192.601,58.908,13.294
2019-07-16T00:31:58,42.805,6.029,4330,1995,192.474,58.870,13.295
2019-07-16T00:34:58,42.805,6.029,4330,1995,192.455,58.863,13.294
2019-07-16T00:37:58,42.805,6.029,4330,1995,192.533,58.886,13.293
2019-07-16T00:40:58,42.805,6.029,4330,1995,192.650,58.922,13.293
2019-07-16T00:43:58,42.805,6.029,4330,1995,192.541,58.887,13.292
2019-07-16T00:46:58,42.805,6.029,4330,1995,192.482,58.869,13.292
2019-07-16T00:49:58,42.805,6.029,4330,1995,192.395,58.843,13.293
2019-07-16T00:52:58,42.805,6.029,4330,1995,192.486,58.871,13.293
2019-07-16T00:55:58,42.805,6.029,4330,1995,192.540,58.888,13.293
2019-07-16T00:58:58,42.805,6.029,4330,1995,192.509,58.879,13.293
2019-07-16T01:01:58,42.805,6.029,4330,1995,192.371,58.838,13.294
2019-07-16T01:04:58,42.805,6.029,4330,1995,192.302,58.814,13.292
2019-07-16T01:07:58,42.805,6.029,4330,1995,192.305,58.817,13.294
2019-07-16T01:10:58,42.805,6.029,4330,1995,192.405,58.847,13.293
2019-07-16T01:13:58,42.805,6.029,4330,1995,192.463,58.865,13.294
2019-07-16T01:16:58,42.805,6.029,4330,1995,192.494,58.875,13.294
2019-07-16T01:19:58,42.805,6.029,4330,1995,192.404,58.848,13.294
2019-07-16T01:22:58,42.805,6.029,4330,1995,192.362,58.835,13.294
2019-07-16T01:25:58,42.805,6.029,4330,1995,192.335,58.828,13.295
2019-07-16T01:28:58,42.805,6.029,4330,1995,192.397,58.846,13.295
2019-07-16T01:31:58,42.805,6.029,4330,1995,192.396,58.845,13.294
2019-07-16T01:34:58,42.805,6.029,4330,1995,192.418,58.853,13.294
2019-07-16T01:37:58,42.805,6.029,4330,1995,192.370,58.838,13.294
2019-07-16T01:40:58,42.805,6.029,4330,1995,192.355,58.834,13.295
2019-07-16T01:43:58,42.805,6.029,4330,1995,192.356,58.836,13.296
2019-07-16T01:46:58,42.805,6.029,4330,1995,192.261,58.805,13.295
2019-07-16T01:49:58,42.805,6.029,4330,1995,192.209,58.791,13.296
2019-07-16T01:52:58,42.805,6.029,4330,1995,192.152,58.774,13.297
2019-07-16T01:55:58,42.805,6.029,4330,1995,192.152,58.774,13.297
2019-07-16T01:58:58,42.805,6.029,4330,1995,192.067,58.749,13.297
2019-07-16T02:07:58,42.805,6.029,4330,1995,191.917,58.693,13.290
2019-07-16T02:10:58,42.805,6.029,4330,1995,191.909,58.696,13.294
2019-07-16T02:13:58,42.805,6.029,4330,1995,191.929,58.704,13.295
2019-07-16T02:16:58,42.805,6.029,4330,1995,191.872,58.687,13.296
2019-07-16T02:19:58,42.805,6.029,4330,1995,191.877,58.689,13.296
2019-07-16T02:22:58,42.805,6.029,4330,1995,191.877,58.689,13.296
2019-07-16T02:25:58,42.805,6.029,4330,1995,191.818,58.673,13.298
2019-07-16T02:28:58,42.805,6.029,4330,1995,191.790,58.663,13.297
2019-07-16T02:31:58,42.805,6.029,4330,1995,191.754,58.654,13.298
2019-07-16T02:34:58,42.805,6.029,4330,1995,191.644,58.620,13.298
2019-07-16T02:37:58,42.805,6.029,4330,1995,191.697,58.635,13.296
2019-07-16T02:40:58,42.805,6.029,4330,1995,191.596,58.603,13.296
2019-07-16T02:43:58,42.805,6.029,4330,1995,191.503,58.575,13.297
2019-07-16T02:46:58,42.805,6.029,4330,1995,191.479,58.571,13.299
2019-07-16T02:49:58,42.805,6.029,4330,1995,191.538,58.585,13.296
2019-07-16T02:52:58,42.805,6.029,4330,1995,191.560,58.595,13.298
2019-07-16T02:55:58,42.805,6.029,4330,1995,191.565,58.598,13.299
2019-07-16T02:58:58,42.805,6.029,4330,1995,191.411,58.552,13.300
2019-07-16T03:01:58,42.805,6.029,4330,1995,191.390,58.543,13.298
2019-07-16T03:04:58,42.805,6.029,4330,1995,191.536,58.586,13.297
2019-07-16T03:07:58,42.805,6.029,4330,1995,191.550,58.590,13.297
2019-07-16T03:10:58,42.805,6.029,4330,1995,191.537,58.588,13.298
2019-07-16T03:13:58,42.805,6.029,4330,1995,191.430,58.560,13.301
2019-07-16T03:16:58,42.805,6.029,4330,1995,191.152,58.472,13.300
2019-07-16T03:19:58,42.805,6.029,4330,1995,191.108,58.456,13.297
2019-07-16T03:22:58,42.805,6.029,4330,1995,191.315,58.520,13.298
2019-07-16T03:25:58,42.805,6.029,4330,1995,191.429,58.555,13.298
2019-07-16T03:28:57,42.805,6.029,4330,1995,191.588,58.605,13.299
2019-07-16T03:31:57,42.805,6.029,4330,1995,191.412,58.551,13.299
2019-07-16T03:34:57,42.805,6.029,4330,1995,191.573,58.601,13.299
2019-07-16T03:37:57,42.805,6.029,4330,1995,191.579,58.597,13.295
2019-07-16T03:40:57,42.805,6.029,4330,1995,191.547,58.591,13.298
2019-07-16T03:43:57,42.805,6.029,4330,1995,191.572,58.598,13.298
2019-07-16T03:46:57,42.805,6.029,4330,1995,191.485,58.572,13.298
2019-07-16T03:49:57,42.805,6.029,4330,1995,191.365,58.535,13.298
2019-07-16T03:52:57,42.805,6.029,4330,1995,191.326,58.524,13.299
2019-07-16T03:55:57,42.805,6.029,4330,1995,191.180,58.477,13.297
2019-07-16T03:58:57,42.805,6.029,4330,1995,191.105,58.454,13.297
2019-07-16T04:01:57,42.805,6.029,4330,1995,191.197,58.482,13.296
2019-07-16T04:04:57,42.805,6.029,4330,1995,191.225,58.489,13.296
2019-07-16T04:07:57,42.805,6.029,4330,1995,191.408,58.546,13.297
2019-07-16T04:10:57,42.805,6.029,4330,1995,191.535,58.585,13.297
2019-07-16T04:13:57,42.805,6.029,4330,1995,191.482,58.571,13.298
2019-07-16T04:16:57,42.805,6.029,4330,1995,191.380,58.544,13.301
2019-07-16T04:19:57,42.805,6.029,4330,1995,191.412,58.550,13.298
2019-07-16T04:22:57,42.805,6.029,4330,1995,191.381,58.540,13.298
2019-07-16T04:25:57,42.805,6.029,4330,1995,191.220,58.492,13.299
2019-07-16T04:28:57,42.805,6.029,4330,1995,191.147,58.470,13.300
2019-07-16T04:31:57,42.805,6.029,4330,1995,190.969,58.418,13.301
2019-07-16T04:34:57,42.805,6.029,4330,1995,190.871,58.387,13.301
2019-07-16T04:40:57,42.805,6.029,4330,1995,190.712,58.345,13.306
2019-07-16T04:43:57,42.805,6.029,4330,1995,190.589,58.298,13.298
2019-07-16T04:46:57,42.805,6.029,4330,1995,190.530,58.280,13.298
2019-07-16T04:49:57,42.805,6.029,4330,1995,190.754,58.347,13.297
2019-07-16T04:52:57,42.805,6.029,4330,1995,190.792,58.364,13.301
2019-07-16T04:55:57,42.805,6.029,4330,1995,190.758,58.350,13.299
2019-07-16T04:58:57,42.805,6.029,4330,1995,190.705,58.332,13.297
2019-07-16T05:01:57,42.805,6.029,4330,1995,190.725,58.340,13.298
2019-07-16T05:04:57,42.805,6.029,4330,1995,190.668,58.322,13.298
2019-07-16T05:07:57,42.805,6.029,4330,1995,190.886,58.385,13.295
2019-07-16T05:10:57,42.805,6.029,4330,1995,191.393,58.537,13.293
2019-07-16T05:13:57,42.805,6.029,4330,1995,191.532,58.583,13.296
2019-07-16T05:16:57,42.805,6.029,4330,1995,191.446,58.558,13.296
2019-07-16T05:19:57,42.805,6.029,4330,1995,191.461,58.564,13.298
2019-07-16T05:22:57,42.805,6.029,4330,1995,191.642,58.615,13.294
